TimeEDT,TemperatureF,Dew PointF,Humidity,Sea Level PressureIn,VisibilityMPH,Wind Direction,Wind SpeedMPH,Gust SpeedMPH,PrecipitationIn,Events,Conditions,WindDirDegrees,DateUTC
12:51 AM,41.0,32.0,70,30.31,10.0,Calm,Calm,-,N/A,,Clear,0,2014-04-20 04:51:00
1:51 AM,37.9,30.9,76,30.31,10.0,Calm,Calm,-,N/A,,Clear,0,2014-04-20 05:51:00
2:51 AM,35.1,30.0,82,30.31,10.0,Calm,Calm,-,N/A,,Clear,0,2014-04-20 06:51:00
3:51 AM,35.1,30.0,82,30.30,10.0,Calm,Calm,-,N/A,,Clear,0,2014-04-20 07:51:00
4:51 AM,33.1,28.9,85,30.31,10.0,Calm,Calm,-,N/A,,Clear,0,2014-04-20 08:51:00
5:51 AM,33.1,28.0,82,30.32,10.0,Calm,Calm,-,N/A,,Clear,0,2014-04-20 09:51:00
6:51 AM,33.1,27.0,78,30.34,10.0,Calm,Calm,-,N/A,,Clear,0,2014-04-20 10:51:00
7:51 AM,39.9,32.0,73,30.34,10.0,Calm,Calm,-,N/A,,Clear,0,2014-04-20 11:51:00
8:51 AM,54.0,28.9,38,30.34,10.0,Calm,Calm,-,N/A,,Clear,0,2014-04-20 12:51:00
9:51 AM,57.0,21.0,25,30.35,10.0,Variable,6.9,-,N/A,,Clear,0,2014-04-20 13:51:00
10:51 AM,62.1,21.9,21,30.35,10.0,Variable,5.8,-,N/A,,Clear,0,2014-04-20 14:51:00
11:51 AM,64.9,21.0,19,30.33,10.0,Calm,Calm,-,N/A,,Clear,0,2014-04-20 15:51:00
12:51 PM,66.9,21.9,18,30.31,10.0,SE,8.1,-,N/A,,Clear,130,2014-04-20 16:51:00
1:51 PM,70.0,19.9,15,30.29,10.0,Variable,5.8,-,N/A,,Clear,0,2014-04-20 17:51:00
2:51 PM,71.6,19.4,14,30.25,10.0,Variable,5.8,-,N/A,,Clear,0,2014-04-20 18:51:00
3:51 PM,72.0,18.0,13,30.24,10.0,SE,8.1,-,N/A,,Clear,130,2014-04-20 19:51:00
4:51 PM,71.6,17.6,13,30.21,10.0,Variable,5.8,-,N/A,,Clear,0,2014-04-20 20:51:00
5:51 PM,71.1,16.0,12,30.22,10.0,Variable,5.8,-,N/A,,Clear,0,2014-04-20 21:51:00
6:51 PM,68.0,17.1,14,30.22,10.0,East,5.8,-,N/A,,Clear,100,2014-04-20 22:51:00
7:51 PM,64.0,17.1,16,30.22,10.0,Variable,3.5,-,N/A,,Clear,0,2014-04-20 23:51:00
8:51 PM,55.0,21.0,27,30.23,10.0,Calm,Calm,-,N/A,,Clear,0,2014-04-21 00:51:00
9:51 PM,55.9,26.1,32,30.23,10.0,SE,8.1,-,N/A,,Clear,140,2014-04-21 01:51:00
10:51 PM,55.4,24.8,31,30.22,10.0,Variable,5.8,-,N/A,,Clear,0,2014-04-21 02:51:00
11:51 PM,44.1,30.9,60,30.22,10.0,Calm,Calm,-,N/A,,Clear,0,2014-04-21 03:51:00